Location: Ladrillo (historical)
(32.8195°N, 117.2231°W)
Time: 00:05:51
(UTC+00:00)

Courier 1B - Pass Details

Date: 07 March 2021
Orbit: 963 x 1209 km, 28.3° (Epoch: 15 April)

Event Time Altitude Azimuth Distance (km) Brightness Sun altitude
Rises 17:57:40 0° 271° (W) 3,634 10.2 42.4°
Reaches altitude 10° 18:00:25 10° 264° (W) 2,687 9.6 42.8°
Maximum altitude 18:06:27 43° 195° (SSW) 1,339 9.2 43.6°
Drops below altitude 10° 18:12:40 10° 126° (SE) 2,760 10.9 44.5°
Sets 18:15:32 0° 120° (ESE) 3,741 11.2 44.8°
